Location: Bougoura
(13.1861°N, 5.0773°W)
Time: 16:36:06
(UTC+00:00)

Sich 1 Rocket - Pass Details

Date: 18 September 2020
Orbit: 616 x 652 km, 82.5° (Epoch: 24 October)

Event Time Altitude Azimuth Distance (km) Brightness Sun altitude
Rises 19:10:53 0° 182° (S) 2,891 7.0 -13.4°
Reaches altitude 10° 19:13:05 10° 181° (S) 1,990 6.1 -14.0°
Maximum altitude 19:17:30 81° 95° (E) 639 3.5 -15.1°
Drops below altitude 10° 19:21:58 10° 7° (N) 2,013 6.2 -16.1°
Sets 19:24:13 0° 6° (N) 2,927 7.0 -16.7°
